Regional Weather Roundup
Issued by NWS

Home | Current Version | Previous Version | Graphics & Text | Print | Product List | Glossary On
Versions: 1 2 3 4 5 6 7 8 9 10 11 12 13 14 15 16 17 18 19 20 21 22 23 24 25 26 27 28 29 30 31 32 33 34 35 36 37 38 39 40 41 42 43 44 45 46 47 48 49 50
814
ASUS44 KLIX 222001
RWRLA
LOUISIANA WEATHER ROUNDUP
NATIONAL WEATHER SERVICE NEW ORLEANS LA
300 PM CDT FRI AUG 22 2014

NOTE: "FAIR" INDICATES FEW OR NO CLOUDS BELOW 12,000 FEET WITH NO
      SIGNIFICANT WEATHER AND/OR OBSTRUCTIONS TO VISIBILITY.
      SKY/WX - SKY CONDITION AND SIGNIFICANT WEATHER.
      TMP - AIR TEMPERATURE.    DP   - DEWPOINT TEMPERATURE.
      RH  - RELATIVE HUMIDITY.  PRES - PRESSURE.
      HX  - HEAT INDEX.         WCI  - WIND CHILL INDEX.

*  THESE STATIONS ARE NOT NWS OR FAA STATIONS AND ARE NOT UNDER
   NWS QUALITY CONTROL.

LAZ040-048-061>063-065-066-069-222100-
SOUTHEAST LOUISIANA

CITY           SKY/WX    TMP DP  RH WIND       PRES   REMARKS
N.O. AUDUBON   NOT AVBL
N.O. INTL ARPT MOSUNNY   92  72  51 N7        30.07F HX  99
N.O. LAKEFRONT SUNNY     89  75  63 NW5       30.07F HX  99
N.O. DOWNTOWN* FAIR      93  70  46 W3        30.07F HX  99
SLIDELL        MOSUNNY   93  71  48 NE3       30.05F HX 100
BATON ROUGE    MOSUNNY   94  72  48 VRB3      30.07F HX 102
BOOTHVILLE     SUNNY     91  76  61 NE6       30.08F HX 103
BELLE CHASSE   PTSUNNY   95  70  44 CALM      30.06F HX 101
BOGALUSA*      FAIR      94  72  48 CALM      30.08F HX 102
GALLIANO*      NOT AVBL
NEW ROADS*     FAIR      90  73  57 N6        30.07F HX  98
GONZALES*      MOCLDY    92  76  58 NE5       30.06F HX 104
HAMMOND*       NOT AVBL
HOUMA*         MOSUNNY   97  68  38 CALM      30.06F HX 101
PORT FOURCHON* CLEAR     91  70  49 VRB5G12   30.09S HX  97

$$

LAZ041-044-053-054-222100-
SOUTHWEST LOUISIANA

CITY           SKY/WX    TMP DP  RH WIND       PRES   REMARKS
LAKE CHARLES   MOSUNNY   93  75  55 S6        30.06F HX 104
LAFAYETTE      SUNNY     94  76  55 VRB5      30.06F HX 106
PATTERSON      PTSUNNY   93  75  55 CALM      30.10F HX 104
SALT POINT       N/A     93  77  59 VRB5      30.06F HX 107
NEW IBERIA     SUNNY     96  73  47 NE7       30.07F HX 105
CHENAULT AIRPK MOSUNNY   93  72  49 CALM      30.07F HX 100

$$

LAZ027-028-222100-
CENTRAL LOUISIANA

CITY           SKY/WX    TMP DP  RH WIND       PRES   REMARKS
FORT POLK      MOSUNNY   91  74  57 VRB3      30.07F HX 100
ALEXANDRIA INT MOSUNNY   91  75  59 VRB3      30.05F HX 101
ALEXANDRIA     MOSUNNY   94  73  50 CALM      30.07F HX 103

$$

LAZ001-002-222100-
NORTHWEST LOUISIANA

CITY           SKY/WX    TMP DP  RH WIND       PRES   REMARKS
SHREVEPORT     SUNNY     95  68  41 W5        30.04F HX  99
BARKSDALE AFB  SUNNY     96  67  38 VRB3      30.04F HX  99
DTN SHREVEPORT SUNNY     94  68  42 VRB3      30.04F HX  98

$$

LAZ014-016-222100-
NORTHEAST LOUISIANA

CITY           SKY/WX    TMP DP  RH WIND       PRES   REMARKS
MONROE         SUNNY     94  71  47 SW6       30.06F HX 101
TALLULAH       SUNNY     93  69  45 VRB3      30.06F HX  98

$$




USA.gov is the U.S. government's official web portal to all federal, state and local government web resources and services.